Flag for Turkey Weather past 2 weeks in Ankara, Turkey

43 °F

Partly cloudy.

Feels Like: 43 °F
Forecast: 29 / 51 °F
Wind: 1 mph from North

Location: Ankara / Esenboga

Current Time: Nov 30, 2015 at 1:36:42 AM

Latest Report: Nov 30, 2015 at 12:50 AM

Visibility: N/A

Pressure: 30.01 "Hg (26.97 "Hg at 871m altitude)

Humidity: 87%

Dew point: 39 °F

Location of AnkaraLocation

Historic Weather in Ankara — Graph


Ankara temperature yesterday

Maximum temperature yesterday: 50 °F (at 10:50 AM)
Minimum temperature yesterday: 43 °F (at 12:20 AM)
Average temperature yesterday: 46 °F

Past Weeks' High & Low Weather Summary

High64 °F (Nov 22, 1:50 PM)100% (Nov 28, 1:50 AM)30.33 "Hg (Nov 28, 1:50 AM)
Low21 °F (Nov 18, 5:50 AM)18% (Nov 17, 2:50 PM)29.80 "Hg (Nov 26, 12:20 PM)
Average44 °F68%30.06 "Hg
* Reported Nov 14 11:20 PM — Nov 29 11:50 PM, Ankara, Weather by CustomWeather, © 2015

Note: Actual official high and low records may vary slightly from our data, if they occured in-between our weather recording intervals... More about our weather records


Ankara weather history for previous 24 hours

Time TempWeatherWind HumidityBarometerVisibility
11:50 PM
Sun, Nov 29
43 °FSprinkles. Partly cloudy.1 mph87%30.04 "HgN/A
11:20 PM43 °FSprinkles. Partly cloudy.1 mph87%30.04 "HgN/A
10:50 PM43 °FSprinkles. Partly cloudy.3 mph87%30.04 "HgN/A
10:20 PM43 °FSprinkles. Partly cloudy.2 mph87%30.04 "HgN/A
9:50 PM43 °FPartly cloudy.2 mph87%30.04 "HgN/A
9:20 PM43 °FPartly cloudy.1 mph87%30.04 "HgN/A
8:50 PM43 °FPartly cloudy.5 mph87%30.04 "HgN/A
8:20 PM45 °FPartly cloudy.6 mph81%30.04 "HgN/A
7:50 PM45 °FPartly cloudy.3 mph81%30.04 "HgN/A
7:20 PM46 °FPartly cloudy.3 mph71%30.04 "HgN/A
6:50 PM46 °FPartly cloudy.7 mph71%30.04 "HgN/A
6:20 PM45 °FPartly cloudy.1 mph76%30.04 "HgN/A
5:50 PM45 °FPartly cloudy.5 mph76%30.04 "HgN/A
5:20 PM46 °FPartly cloudy.16 mph71%30.04 "HgN/A
4:50 PM48 °FPartly cloudy.6 mph66%30.01 "HgN/A
4:20 PM48 °FBroken clouds.9 mph66%30.01 "HgN/A
3:50 PM48 °FBroken clouds.10 mph66%30.01 "HgN/A
3:20 PM48 °FBroken clouds.9 mph71%30.01 "HgN/A
2:50 PM50 °FBroken clouds.12 mph67%30.01 "HgN/A
2:20 PM50 °FBroken clouds.13 mph67%30.01 "HgN/A
1:50 PM50 °FBroken clouds.14 mph62%30.01 "HgN/A
1:20 PM50 °FBroken clouds.13 mph62%30.01 "HgN/A
12:50 PM50 °FBroken clouds.10 mph62%30.01 "HgN/A
12:20 PM48 °FBroken clouds.9 mph66%30.01 "HgN/A
11:20 AM50 °FBroken clouds.12 mph67%30.01 "HgN/A
10:50 AM50 °FBroken clouds.13 mph67%30.01 "HgN/A
10:20 AM48 °FBroken clouds.13 mph71%30.01 "HgN/A
9:50 AM46 °FBroken clouds.13 mph76%30.01 "HgN/A
8:50 AM45 °FBroken clouds.13 mph81%30.01 "HgN/A
8:20 AM45 °FBroken clouds.8 mph81%30.01 "HgN/A
6:50 AM43 °FBroken clouds.13 mph81%29.95 "HgN/A
6:20 AM43 °FPartly cloudy.13 mph87%29.95 "HgN/A
5:50 AM43 °FPartly cloudy.13 mph87%29.95 "HgN/A
5:20 AM43 °FPartly cloudy.12 mph87%29.95 "HgN/A
4:50 AM45 °FPartly cloudy.17 mph81%29.92 "HgN/A
4:20 AM45 °FPartly cloudy.17 mph81%29.92 "HgN/A
3:50 AM45 °FPartly cloudy.13 mph81%29.92 "HgN/A
3:20 AM45 °FPartly cloudy.12 mph87%29.92 "HgN/A
2:50 AM45 °FPartly cloudy.10 mph87%29.92 "HgN/A
1:50 AM43 °FSprinkles. Partly cloudy.5 mph93%29.89 "HgN/A
1:20 AM43 °FSprinkles. Partly cloudy.5 mph87%29.89 "HgN/A
Weather by CustomWeather, © 2015

See weather overviewHow to use our weather pages